Falfurrias, TX

2:43 PM CST on December 05, 2019 (GMT -0600)
Falfurrias

Weather History for KBKS - October, 2019

Change the Weather History Date:

Monday, October 7, 2019

  Actual Average (KNQI) Record (KNQI)
Temperature  
Mean Temperature 82 °F -  
Max Temperature 94 °F 82 °F 95 °F (2011)
Min Temperature 71 °F 65 °F 41 °F (2013)
Cooling Degree Days 17    
Growing Degree Days 32 (Base 50)    
Moisture  
Dew Point 68 °F    
Average Humidity 67    
Maximum Humidity 91    
Minimum Humidity 34    
Precipitation  
Precipitation 0.00 in - - ()
Sea Level Pressure  
Sea Level Pressure 30.00 in    
Wind  
Wind Speed 4 mph ()    
Max Wind Speed 14 mph    
Max Gust Speed 18 mph    
Visibility 9.9 miles    
Events      
Averages and records for this station are not official NWS values.
T = Trace of Precipitation, MM = Missing Value Source: Averaged Metar Reports

Daily Weather History Graph

Daily Weather History Graph

Search for Another Location

Airport or City:

Astronomy

Oct. 07, 2019 Rise Set
Actual Time 7:27 AM CDT 7:12 PM CDT
Civil Twilight 7:04 AM CDT 7:35 PM CDT
Nautical Twilight 6:37 AM CDT 8:02 PM CDT
Astronomical Twilight 6:10 AM CDT 8:29 PM CDT
Moon 3:58 PM CDT (10/7) 2:00 AM CDT (10/7)
Length of Visible Light 12h 30m
Length of Day
11h 44m
Waxing Gibbous, 69% of the Moon is Illuminated
Oct 7
Waxing Gibbous
Oct 13
Full
Oct 21
Last Quarter
Oct 27
New
Nov 4
First Quarter

Hourly Weather History & Observations

Time (CDT) Temp. Heat Index Dew Point Humidity Pressure Visibility Wind Dir Wind Speed Gust Speed Precip Events Conditions
12:15 AM 75.6 °F - 71.8 °F 88% 29.96 in 10.0 mi Calm Calm - N/A   Clear
12:35 AM 75.2 °F - 71.6 °F 89% 29.96 in 10.0 mi Calm Calm - N/A   Clear
12:55 AM 75.2 °F - 71.6 °F 89% 29.96 in 10.0 mi Calm Calm - N/A   Clear
1:15 AM 74.7 °F - 71.2 °F 89% 29.96 in 10.0 mi Calm Calm - N/A   Clear
1:35 AM 74.5 °F - 71.2 °F 90% 29.96 in 10.0 mi NNE 3.5 mph - N/A   Clear
1:55 AM 74.3 °F - 71.1 °F 90% 29.96 in 10.0 mi Calm Calm - N/A   Clear
2:15 AM 74.7 °F - 71.2 °F 89% 29.96 in 10.0 mi Calm Calm - N/A   Clear
2:35 AM 73.9 °F - 70.9 °F 90% 29.96 in 10.0 mi Calm Calm - N/A   Clear
2:55 AM 73.4 °F - 70.5 °F 91% 29.96 in 10.0 mi Calm Calm - N/A   Clear
3:15 AM 73.4 °F - 70.5 °F 91% 29.96 in 10.0 mi Calm Calm - N/A   Clear
3:35 AM 73.0 °F - 70.2 °F 91% 29.96 in 7.0 mi Calm Calm - N/A   Clear
3:55 AM 72.5 °F - 69.8 °F 91% 29.96 in 10.0 mi Calm Calm - N/A   Clear
4:15 AM 72.7 °F - 70.0 °F 91% 29.96 in 7.0 mi North 3.5 mph - N/A   Clear
4:35 AM 72.7 °F - 70.0 °F 91% 29.96 in 7.0 mi North 3.5 mph - N/A   Clear
4:55 AM 72.5 °F - 69.8 °F 91% 29.97 in 10.0 mi North 4.6 mph - N/A   Clear
5:15 AM 72.5 °F - 69.8 °F 91% 29.98 in 10.0 mi North 3.5 mph - N/A   Clear
5:35 AM 72.5 °F - 69.8 °F 91% 29.98 in 10.0 mi NNW 4.6 mph - N/A   Clear
5:55 AM 72.5 °F - 69.8 °F 91% 29.98 in 10.0 mi North 3.5 mph - N/A   Clear
6:15 AM 72.3 °F - 69.6 °F 91% 29.98 in 10.0 mi North 3.5 mph - N/A   Clear
6:35 AM 72.1 °F - 69.4 °F 91% 29.99 in 10.0 mi NNW 4.6 mph - N/A   Clear
6:55 AM 72.5 °F - 69.8 °F 91% 29.99 in 10.0 mi North 3.5 mph - N/A   Clear
7:15 AM 72.0 °F - 69.1 °F 91% 30.00 in 10.0 mi North 3.5 mph - N/A   Clear
7:35 AM 71.8 °F - 69.1 °F 91% 30.00 in 10.0 mi Calm Calm - N/A   Scattered Clouds
7:55 AM 72.5 °F - 69.8 °F 91% 30.01 in 10.0 mi North 3.5 mph - N/A   Mostly Cloudy
8:15 AM 73.4 °F - 70.3 °F 90% 30.02 in 10.0 mi North 3.5 mph - N/A   Mostly Cloudy
8:35 AM 74.5 °F - 71.1 °F 89% 30.02 in 10.0 mi North 4.6 mph - N/A   Scattered Clouds
8:55 AM 76.1 °F - 72.0 °F 87% 30.03 in 10.0 mi North 8.1 mph - N/A   Scattered Clouds
9:15 AM 78.4 °F - 72.7 °F 82% 30.04 in 10.0 mi North 8.1 mph - N/A   Scattered Clouds
9:35 AM 80.2 °F 84.6 °F 73.2 °F 79% 30.05 in 10.0 mi North 6.9 mph - N/A   Scattered Clouds
9:55 AM 81.7 °F 87.1 °F 73.4 °F 76% 30.05 in 10.0 mi NNW 8.1 mph - N/A   Scattered Clouds
10:15 AM 83.5 °F 90.0 °F 73.8 °F 72% 30.05 in 10.0 mi North 10.4 mph 16.1 mph N/A   Scattered Clouds
10:35 AM 85.1 °F 92.2 °F 73.4 °F 68% 30.05 in 10.0 mi North 8.1 mph - N/A   Clear
10:55 AM 84.9 °F 90.4 °F 71.4 °F 64% 30.05 in 10.0 mi North 10.4 mph - N/A   Scattered Clouds
11:15 AM 85.8 °F 91.8 °F 72.0 °F 63% 30.06 in 10.0 mi North 9.2 mph 18.4 mph N/A   Scattered Clouds
11:35 AM 85.6 °F 90.8 °F 70.9 °F 61% 30.05 in 10.0 mi North 12.7 mph - N/A   Scattered Clouds
11:55 AM 86.0 °F 89.7 °F 68.9 °F 56% 30.05 in 10.0 mi North 10.4 mph - N/A   Scattered Clouds
12:15 PM 89.4 °F 92.3 °F 66.9 °F 47% 30.05 in 10.0 mi North 10.4 mph - N/A   Scattered Clouds
12:35 PM 88.5 °F 92.3 °F 68.2 °F 51% 30.04 in 10.0 mi North 13.8 mph 18.4 mph N/A   Scattered Clouds
12:55 PM 90.1 °F 92.3 °F 65.8 °F 44% 30.03 in 10.0 mi North 10.4 mph - N/A   Scattered Clouds
1:15 PM 91.2 °F 92.9 °F 64.4 °F 41% 30.03 in 10.0 mi North 9.2 mph - N/A   Scattered Clouds
1:35 PM 90.5 °F 91.4 °F 63.1 °F 40% 30.01 in 10.0 mi NNW 10.4 mph - N/A   Clear
1:55 PM 91.0 °F 93.0 °F 64.8 °F 42% 30.01 in 10.0 mi North 6.9 mph - N/A   Scattered Clouds
2:15 PM 92.1 °F 94.0 °F 64.8 °F 40% 29.99 in 10.0 mi North 12.7 mph 17.3 mph N/A   Scattered Clouds
2:35 PM 92.7 °F 94.0 °F 63.9 °F 38% 29.99 in 10.0 mi North 10.4 mph - N/A   Clear
2:55 PM 92.5 °F 94.1 °F 63.9 °F 39% 29.98 in 10.0 mi North 6.9 mph - N/A   Clear
3:15 PM 91.8 °F 93.4 °F 64.2 °F 40% 29.98 in 10.0 mi NNE 6.9 mph 18.4 mph N/A   Scattered Clouds
3:35 PM 93.2 °F 94.9 °F 64.0 °F 38% 29.97 in 10.0 mi North 13.8 mph 18.4 mph N/A   Mostly Cloudy
3:55 PM 93.2 °F 94.1 °F 62.8 °F 36% 29.97 in 10.0 mi NNE 9.2 mph 18.4 mph N/A   Scattered Clouds
4:15 PM 93.2 °F 94.1 °F 63.0 °F 36% 29.97 in 10.0 mi North 8.1 mph 16.1 mph N/A   Scattered Clouds
4:35 PM 93.4 °F 93.9 °F 62.2 °F 35% 29.96 in 10.0 mi North 5.8 mph - N/A   Scattered Clouds
4:55 PM 93.7 °F 94.9 °F 62.8 °F 36% 29.96 in 10.0 mi NNE 11.5 mph 17.3 mph N/A   Scattered Clouds
5:15 PM 93.7 °F 94.5 °F 62.4 °F 35% 29.95 in 10.0 mi North 9.2 mph - N/A   Scattered Clouds
5:35 PM 93.2 °F 93.3 °F 61.0 °F 34% 29.95 in 10.0 mi NNE 10.4 mph - N/A   Scattered Clouds
5:55 PM 92.7 °F 93.2 °F 62.4 °F 36% 29.95 in 10.0 mi North 5.8 mph - N/A   Clear
6:15 PM 92.3 °F 93.1 °F 62.8 °F 37% 29.95 in 10.0 mi NNE 6.9 mph - N/A   Scattered Clouds
6:35 PM 91.8 °F 92.2 °F 62.4 °F 37% 29.96 in 10.0 mi NNE 8.1 mph - N/A   Mostly Cloudy
6:55 PM 89.8 °F 90.7 °F 63.3 °F 41% 29.96 in 10.0 mi NNE 9.2 mph - N/A   Scattered Clouds
7:15 PM 88.9 °F 89.7 °F 63.3 °F 42% 29.98 in 10.0 mi NNE 5.8 mph - N/A   Clear
7:35 PM 86.5 °F 87.8 °F 64.2 °F 47% 29.98 in 10.0 mi NNE 4.6 mph - N/A   Clear
7:55 PM 85.6 °F 86.8 °F 64.0 °F 48% 29.99 in 10.0 mi East 5.8 mph - N/A   Scattered Clouds
8:15 PM 84.6 °F 87.1 °F 66.9 °F 55% 30.00 in 10.0 mi East 5.8 mph - N/A   Mostly Cloudy
8:35 PM 83.7 °F 88.0 °F 70.3 °F 64% 30.01 in 10.0 mi East 3.5 mph - N/A   Mostly Cloudy
8:55 PM 83.8 °F 89.2 °F 72.0 °F 67% 30.01 in 10.0 mi East 3.5 mph - N/A   Overcast
9:15 PM 83.3 °F 88.7 °F 72.1 °F 69% 30.02 in 10.0 mi Calm Calm - N/A   Mostly Cloudy
9:35 PM 82.4 °F 87.4 °F 72.3 °F 71% 30.03 in 10.0 mi Calm Calm - N/A   Mostly Cloudy
9:55 PM 81.9 °F 87.0 °F 72.7 °F 74% 30.03 in 10.0 mi Calm Calm - N/A   Mostly Cloudy
10:15 PM 81.5 °F 86.3 °F 72.5 °F 74% 30.04 in 10.0 mi NNE 4.6 mph - N/A   Scattered Clouds
10:35 PM 80.6 °F 84.9 °F 72.5 °F 76% 30.04 in 10.0 mi Calm Calm - N/A   Clear
10:55 PM 79.7 °F - 72.3 °F 78% 30.04 in 10.0 mi NNE 3.5 mph - N/A   Clear
11:15 PM 79.9 °F - 68.5 °F 68% 30.04 in 10.0 mi NNE 4.6 mph - N/A   Scattered Clouds
11:35 PM 79.3 °F - 65.3 °F 62% 30.04 in 10.0 mi NNE 3.5 mph - N/A   Clear
11:55 PM 78.3 °F - 65.1 °F 64% 30.03 in 10.0 mi North 4.6 mph - N/A   Clear